Regional Weather Roundup
Issued by NWS Grand Forks, ND

Home | Current Version | Previous Version | Text Only | Print | Product List | Glossary Off
Versions: 1 2 3 4 5 6 7 8 9 10 11 12 13 14 15 16 17 18 19 20 21 22 23 24 25 26 27 28 29 30 31 32 33 34 35 36 37 38 39 40 41 42 43 44 45 46 47 48 49 50

235
ASUS43 KFGF 181710
RWRFGF
PRAIRIE TO PINES  WEATHER ROUNDUP
NATIONAL WEATHER SERVICE EASTERN NORTH DAKOTA/GRAND FORKS ND
1100 AM CST SAT NOV 18 2017

 **SATELLITE DATA USED TO AUGMENT SKY COVER AT AUTOMATED STATIONS**
 *****  WEATHER ACROSS EASTERN NORTH DAKOTA  *****

CITY           SKY/WX    TMP DP  RH WIND       PRES   REMARKS
GRAND FORKS    FAIR      19  11  70 NW15      30.03R WCI   5
GRAND FRKS AFB PTSUNNY   18   9  68 NW17      30.03R WCI   3
GRAND FRKS NWS   N/A     19 N/A N/A N6          N/A  WCI  11
DEVILS LAKE    FAIR      14   7  73 NW24      30.02R WCI  -5
FARGO          CLOUDY    22  12  65 NW20G26   30.03R WCI   7
WAHPETON ARPT  NOT AVBL
$$

 ***** WEATHER ACROSS CENTRAL AND WESTERN NORTH DAKOTA  *****

CITY           SKY/WX    TMP DP  RH WIND       PRES   REMARKS
BISMARCK       CLOUDY    25  17  72 NW17      30.13R WCI  12
MINOT          FAIR      19   8  62 W21       30.09R WCI   3
JAMESTOWN      FAIR      20  11  68 NW24      30.04R WCI   3
MINOT AFB      FAIR      17   8  66 NW21G26   30.08R WCI   0
GARRISON         N/A     19  11  70 NW18      30.10F WCI   4
WILLISTON      FAIR      21  10  62 W10       30.13F WCI  10
DICKINSON      FAIR      21  15  78 W13       30.09S WCI   9
HETTINGER      FAIR      22  13  68 NW16      30.12S WCI   8
$$

 *****  OTHER AIRPORT OBSERVATIONS IN OUR AREA  *****

CITY           SKY/WX    TMP DP  RH WIND       PRES   REMARKS
WALHALLA       FAIR      16   7  67 NW15G24   30.01S WCI   1
GRAFTON AIRPOR FAIR      16  10  79 NW12      30.04S WCI   3
VALLEY CITY AR FLURRIES  19  12  73 NW21G26   30.05R WCI   3
CANDO          FAIR      16   7  67 W21       30.04S WCI  -2
CAVALIER APRT  FAIR      16   7  67 NW15G24   30.00F WCI   1
GWINNER          N/A     25  12  58 NW17      30.05R WCI  11
SHEYENNE NWR     N/A     23  11  60 N13       29.95S WCI  11
ROLLA          FAIR      14   1  57 NW21      30.00S WCI  -4
 ***** THE ABOVE OBSERVATIONS ARE NON NWS ARE NOT QUALITY
       CONTROLLED AND MAY MIS-REPORT RAIN FOR SNOW...
$$

  *****  WEATHER ACROSS NORTHERN MINNESOTA  *****

CITY           SKY/WX    TMP DP  RH WIND       PRES   REMARKS
FLAG ISLAND    CLOUDY    16  10  79 NW13      29.90R WCI   2
WARROAD        FLURRIES  16  10  79 NW13G18   29.93R WCI   2
ROSEAU         FLURRIES  18  12  79 NW13      29.94R WCI   4
HALLOCK        LGT SNOW  18  12  79 NW14G20   29.99S WCI   4
THF RVR FALLS  FLURRIES  17  12  80 NW15      29.98R WCI   2
BAUDETTE       CLOUDY    18  12  77 NW17      29.89R WCI   3
WASKISH        CLOUDY    19  12  73 NW13      29.90R WCI   7
CROOKSTON      FLURRIES  18  12  79 NW20      30.02R WCI   1
STEPHEN NDAWN    N/A     18  10  73 NW12        N/A  WCI   5
GREENBUSH NDAW   N/A     16  10  79 NW15        N/A  WCI   1
$$
  *****  WEATHER ACROSS CENTRAL AND WEST MINNESOTA  *****

CITY           SKY/WX    TMP DP  RH WIND       PRES   REMARKS
FOSSTON        FLURRIES  18  10  73 NW15      29.97R WCI   3
BEMIDJI        CLOUDY    18  12  78 NW15      29.92R WCI   4
PARK RAPIDS    CLOUDY    22  13  68 NW16G25   29.90R WCI   8
ELBOW LAKE     FAIR      23  14  70 W21G26    29.98R HAZE    WCI   8
WADENA         CLOUDY    21  16  79 NW14G24   29.92R WCI   8
DETROIT LAKES  FAIR      21  14  73 NW22G28   29.96R WCI   5
MOORHEAD       CLOUDY    21  12  68 N21       30.03R WCI   6
FERGUS FALLS   FAIR      21  12  68 N18G25    30.01R WCI   6
MORRIS MN      PTSUNNY   25  16  68 NW28G33   29.97R WCI   8
STAPLES        FAIR      25  16  68 NW18G25   29.90R WCI  11
$$
  *****  WEATHER ELSEWHERE ACROSS MINNESOTA  *****

CITY           SKY/WX    TMP DP  RH WIND       PRES   REMARKS
DULUTH         FAIR      24  18  77 N14G24    29.75R WCI  12
INTRNTL FALLS  CLOUDY    21  14  74 NW10      29.84S WCI  10
ELY            FLURRIES  23  18  80 NW6       29.76S WCI  16
CLOQUET        FAIR      25  16  68 NW12G22   29.78S WCI  14
WHEATON        FAIR      27  12  54 NW20G28   30.03R WCI  13
BRAINERD       FAIR      27  15  61 NW15G21   29.86S WCI  15
HIBBING        CLOUDY    20  15  81 NW15      29.81R WCI   6
ALEXANDRIA     PTSUNNY   24  16  71 NW18G25   29.93R WCI  10
SAINT CLOUD    FAIR      30  20  66 NW16G23   29.86R WCI  19
MINNEAPOLIS    FAIR      35  25  66 NW18      29.82R WCI  24
$$

  *****  WEATHER ACROSS SOUTH DAKOTA  *****

CITY           SKY/WX    TMP DP  RH WIND       PRES   REMARKS
SIOUX FALLS    FAIR      37  24  59 N29G38    29.99R
BROOKINGS      PTSUNNY   30  20  66 NW23G30   29.98R WCI  17
WATERTOWN      CLOUDY    25  15  66 NW18G26   29.99R WCI  11
HURON          FAIR      31  18  58 NW18G30   30.09R WCI  19
SISSETON         N/A     27  14  58 NW26G32   30.02R WCI  12
ABERDEEN       FAIR      27  15  61 NW15      30.09R WCI  15
MITCHELL       FAIR      34  25  69 NW21G30   30.08R WCI  22
PIERRE         FAIR      30  21  69 NW22      30.14R WCI  17
MOBRIDGE       FAIR      25  15  66 NW13      30.11R WCI  14
RAPID CITY     FAIR      42  18  37 NW21G31   30.15R
$$

  *****  SOME WEATHER IN NEARBY STATES *****

CITY           SKY/WX    TMP DP  RH WIND       PRES   REMARKS
GLASGOW MT     FAIR      19  14  81 CALM      30.10F
GREAT FALLS MT FAIR      39  18  42 SW30G43   30.12R
CHEYENNE WY    FAIR      29  13  51 W9        30.21R WCI  20
SCOTTSBLUFF NE FAIR      38  19  46 W15       30.24R
OMAHA NE       PTSUNNY   43  29  57 N17       29.95R
DES MOINES IA  PTSUNNY   39  33  79 NW15G25   29.82R
DAVENPORT IA   LGT RAIN  38  36  92 N14       29.65R FOG
CHICAGO IL     LGT RAIN  39  35  86 N17       29.47S
EAU CLAIRE WI  CLOUDY    36  29  75 N10       29.73R
LA CROSSE WI   CLOUDY    39  32  76 N14       29.71R
$$

  *****  SOME NATIONAL WEATHER *****

CITY           SKY/WX    TMP DP  RH WIND       PRES   REMARKS
LA GUARDIA NY  PTSUNNY   48  31  51 S15G23    29.82F
RALEIGH NC     PTSUNNY   62  41  46 SW20G28   29.91F
ATLANTA GA     FAIR      65  55  70 S9        29.93F
NEW ORLEANS LA PTSUNNY   81  67  62 S17       29.92F
OKLAHOMA CITY  CLOUDY    51  39  63 N33G45    30.06R
ALBUQUERQUE NM FAIR      41   6  23 NW13      30.36S
SALT LAKE CITY FAIR      36  21  54 SE10      30.46S
LOS ANGELES CA FAIR      67  54  63 N5        30.16S
BOISE ID       FAIR      38  23  55 SE12      30.41S
SEATTLE WA     PTSUNNY   46  38  73 SE7       30.29R
$$

*** WEATHER ACROSS MANITOBA...SASKATCHEWAN AND ONTARIO ***
                ***ONTARIO***

CITY           SKY/WX    TMP DP  RH WIND       PRES   REMARKS
GERALDTON      LGT SNOW  19  16  86 NW7       29.67S FOG     WCI  10
THUNDER BAY    CLOUDY    27  21  80 NW9       29.73S WCI  17
SIOUX LOOKOUT  FLURRIES  18  10  73 NW8       29.78R WCI   7
TORONTO        DRIZZLE   45  43  93 SE2       29.44F FOG
BIG TROUT LK   FLURRIES  14   9  79 W13G21    29.68S WCI   0
PICKLE LAKE    FLURRIES  16  10  79 W7        29.72S WCI   6
DRYDEN         FLURRIES  18  14  86 W10       29.80S WCI   6
KENORA         SNOWSHWR  14  10  85 NW12      29.86R WCI   0
$$
                *** MANITOBA***

CITY           SKY/WX    TMP DP  RH WIND       PRES   REMARKS
BRANDON        MOSUNNY    9   0  66 W23       30.00S WCI -12
DAUPHIN        SUNNY      9   1  72 W23G30    29.96R WCI -12
ISLAND LAKE    FLURRIES  10   1  67 W16G24    29.77S WCI  -7
PILOT MOUND      N/A     10   3  72 W13G21      N/A  WCI  -5
THE PAS        FLURRIES  10   3  72 W17G26    29.88R WCI  -7
THOMPSON       MOSUNNY    9   0  66 W20G25    29.69S WCI -11
WINNIPEG       FLURRIES  16   7  67 NW14      29.98S WCI   1
LYNN LAKE      CLOUDY     7   3  85 W21G28    29.66F WCI -13
CHURCHILL      CRYSTALS   1  -6  71 W14G20    29.48S WCI -17
$$
                ***SASKATCHEWAN***

CITY           SKY/WX    TMP DP  RH WIND       PRES   REMARKS
ESTEVAN        PTSUNNY   12   7  79 W17       30.07F WCI  -5
KINDERSLEY     PTSUNNY    1  -4  78 SW9       29.97S WCI -14
LLOYDMINSTER   PTSUNNY    7   3  85 SW7       29.89F WCI  -5
PRINCE ALBERT  PTSUNNY    1  -6  71 W5        30.00S WCI  -8
REGINA         FLURRIES  10   5  79 W13       30.06R WCI  -5
YORKTON        SUNNY      7   0  72 W9        29.99S WCI  -7
N. BATTLEFORD  SUNNY      0  -6  78 SE3       29.99F
LA RONGE       CLOUDY     3  -2  78 W13       29.90F WCI -14
SASKATOON      PTSUNNY    3   0  85 SW12      30.03R WCI -13
SWIFT CURRENT  SUNNY     16  10  79 SW16      29.97S WCI   0
$$
NOTE: THESE ARE AUTOMATED STATIONS WITH LIMITED QUALITY CONTROL
      "FAIR" INDICATES FEW OR NO CLOUDS BELOW 12,000 FEET WITH NO
      SIGNIFICANT WEATHER AND/OR OBSTRUCTIONS TO VISIBILITY.
      SKY/WX - SKY CONDITION AND SIGNIFICANT WEATHER.
      TMP - AIR TEMPERATURE.    DP   - DEWPOINT TEMPERATURE.
      RH  - RELATIVE HUMIDITY.  PRES - PRESSURE.
      HX  - HEAT INDEX.         WCI  - WIND CHILL INDEX.
$




USA.gov is the U.S. government's official web portal to all federal, state and local government web resources and services.